Weather Roundup
Issued by NWS Chicago, IL

Home | Current Version | Previous Version | Graphics & Text | Print | Product List | Glossary On
Versions: 1 2 3 4 5 6 7 8 9 10 11 12 13 14 15 16 17 18 19 20 21 22 23 24 25 26 27 28 29 30 31 32 33 34 35 36 37 38 39 40 41 42 43 44 45 46 47 48 49 50
000
NZUS59 KLOT 181300
HRRLOT

CHICAGO AREA WEATHER ROUNDUP
NATIONAL WEATHER SERVICE CHICAGO/ROMEOVILLE IL
800 AM CDT THU SEP 18 2014

NOTE: "FAIR" INDICATES FEW OR NO CLOUDS BELOW 12,000 FEET WITH NO
SIGNIFICANT WEATHER AND/OR OBSTRUCTIONS TO VISIBILITY.

* THESE STATIONS ARE NOT UNDER NWS QUALITY CONTROL. THEY ALSO MAY NOT
  REPORT WEATHER SUCH AS PRECIPITATION OR FOG.

ILZ005-006-012>014-019>023-181400-
NORTHEAST ILLINOIS

CITY           SKY/WX    TMP DP  RH WIND       PRES   REMARKS
OHARE          CLOUDY    56  53  90 N5        30.12R FOG
MIDWAY         MOSUNNY   59  54  83 N3        30.12R
AURORA         SUNNY     51  47  86 NE3       30.13R FOG
LANSING*       MOSUNNY   53  50  88 CALM      30.13R
WAUKEGAN       MOSUNNY   54  52  93 N6        30.12R
DUPAGE AIRPORT FOG       52  51  97 NE7       30.13R VSB 1
WHEELING       CLOUDY    55  53  93 NW3       30.13R FOG
NORTHERLY IS     N/A     60  56  86 N6          N/A
$$

WIZ051-052-058>065-066-070>072-181400-
SOUTHEAST WISCONSIN

CITY           SKY/WX    TMP DP  RH WIND       PRES   REMARKS
MILWAUKEE      CLOUDY    53  48  83 N10       30.14R
KENOSHA*       PTSUNNY   54  53  97 N5        30.13R
RACINE*        CLOUDY    55  52  89 N12       30.14R
WAUKESHA       CLOUDY    48  46  93 NE12      30.15R
$$

INZ001>003-010>013-019-020-181400-
NORTHWEST INDIANA

CITY           SKY/WX    TMP DP  RH WIND       PRES   REMARKS
GARY*          MOSUNNY   54  54 100 CALM      30.12  FOG
MICHIGAN CITY* NOT AVBL
RENSSELAER*    NOT AVBL
VALPARAISO     SUNNY     51  46  83 NE3       30.12R
$$

LMZ740>746-181400-
SOUTHERN LAKE MICHIGAN

STATION/POSITION TIME  SKY/WX   TEMP WIND        PRES    VSBY
                                AIR  DIR/SP/G
                 (UTC)          (F)  (DEG/KT/KT) (MB)    (MI)
HARRISON CRIB    1200            60  360/  9/ 10   N/A
BURNHAM HARBOR   1300            60  350/  7/  8   N/A
CALUMET HARBOR   1200            56   CALM  /  2 1018.2R
BURNS HARBOR     NOT AVBL
MICHIGAN CITY    1200            54   80/  6/  8   N/A
$$

ABBREVIATIONS USED IN REMARKS
   TC - TEMPERATURE IN CELSIUS
  WCI - WIND CHILL INDEX
   HX - HEAT INDEX
  VSB - VISIBILITY
$$



USA.gov is the U.S. government's official web portal to all federal, state and local government web resources and services.